Flag for Slovenia Weather past 2 weeks in Kranj, Slovenia

Now
55 °F

Passing clouds.


Feels Like: 55 °F
Forecast: 52 / 61 °F
Wind: 1 mph from West

Location: Ljubljana Airport / Brnik

Current Time: Aug 20, 2014 at 7:45:34 AM

Latest Report: Aug 20, 2014 at 7:00 AM


Visibility: N/A

Pressure: 29.98 "Hg

Humidity: 100%

Dew point: 55 °F

Location of KranjLocation

Historic Weather in Kranj — Graph

°F

Kranj temperature yesterday

Maximum temperature yesterday: 66 °F (at 9:30 AM)
Minimum temperature yesterday: 54 °F (at 6:00 AM)
Average temperature yesterday: 60 °F

Past Weeks' High & Low Weather Summary

 TemperatureHumidityPressure
High86 °F (Aug 11, 3:00 PM)100% (Aug 5, 8:00 AM)30.12 "Hg (Aug 5, 8:00 AM)
Low46 °F (Aug 17, 5:00 AM)36% (Aug 17, 5:30 PM)29.68 "Hg (Aug 13, 6:30 PM)
Average66 °F80%29.97 "Hg
* Reported Aug 5 6:00 AM — Aug 20 6:30 AM, Kranj, Weather by CustomWeather, © 2014

Note: Actual official high and low records may vary slightly from our data, if they occured in-between our weather recording intervals... More about our weather records

Advertising

Kranj weather history for previous 24 hours

 ConditionsComfort  
Time TempWeatherWind HumidityBarometerVisibility
6:30 AM
Aug 20
55 °FPassing clouds.2 mph100%29.98 "HgN/A
6:00 AM55 °FPartly cloudy.2 mph100%29.98 "HgN/A
5:30 AM57 °FPartly cloudy.2 mph94%29.98 "HgN/A
5:00 AM57 °FPassing clouds.1 mph100%29.98 "HgN/A
4:30 AM57 °FPassing clouds.1 mph100%29.98 "HgN/A
4:00 AM57 °FPartly cloudy.1 mph100%29.98 "HgN/A
3:30 AM57 °FPartly cloudy.1 mph100%29.98 "HgN/A
3:00 AM57 °FPartly cloudy.2 mph100%29.98 "HgN/A
2:30 AM57 °FPartly cloudy.3 mph100%29.95 "HgN/A
2:00 AM57 °FPartly cloudy.3 mph100%29.95 "HgN/A
1:30 AM57 °FPartly cloudy.3 mph100%29.98 "HgN/A
1:00 AM57 °FPassing clouds.3 mph100%29.98 "HgN/A
12:30 AM57 °FPassing clouds.1 mph100%29.98 "Hg4 mi
12:00 AM57 °FPassing clouds.2 mph100%29.98 "Hg4 mi
11:30 PM
Aug 19
59 °FPartly cloudy.1 mph94%29.98 "Hg5 mi
10:30 PM59 °FPartly cloudy.No wind100%29.98 "HgN/A
10:00 PM61 °FPartly cloudy.2 mph94%29.98 "HgN/A
9:30 PM61 °FPartly cloudy.1 mph94%29.98 "HgN/A
9:00 PM61 °FBroken clouds.No wind94%29.98 "HgN/A
8:30 PM61 °FBroken clouds.3 mph100%29.95 "HgN/A
8:00 PM63 °FBroken clouds.3 mph94%29.95 "HgN/A
7:30 PM63 °FPartly sunny.2 mph88%29.95 "HgN/A
7:00 PM63 °FPartly sunny.2 mph94%29.95 "HgN/A
6:30 PM63 °FPartly sunny.5 mph94%29.95 "HgN/A
6:00 PM63 °FBroken clouds.5 mph94%29.95 "HgN/A
5:30 PM63 °FBroken clouds.7 mph88%29.95 "HgN/A
5:00 PM63 °FBroken clouds.9 mph88%29.98 "HgN/A
4:30 PM61 °FBroken clouds.8 mph94%29.98 "HgN/A
4:00 PM61 °FSprinkles. Broken clouds.7 mph94%29.98 "HgN/A
3:30 PM61 °FSprinkles. Broken clouds.7 mph94%29.98 "Hg4 mi
3:00 PM61 °FRain showers. Broken clouds.14 mph94%29.95 "Hg1 mi
2:30 PM66 °FRain showers. Broken clouds.2 mph88%29.95 "Hg3 mi
2:00 PM64 °FRain showers. Broken clouds.5 mph94%29.95 "Hg4 mi
1:30 PM66 °FBroken clouds.3 mph88%29.95 "HgN/A
1:00 PM66 °FSprinkles. Broken clouds.2 mph88%29.95 "HgN/A
12:30 PM63 °FRain showers. Broken clouds.2 mph94%29.95 "Hg4 mi
12:00 PM63 °FRain showers. Broken clouds.No wind94%29.95 "Hg4 mi
11:30 AM66 °FRain showers. Broken clouds.1 mph78%29.95 "HgN/A
11:00 AM66 °FLight rain. Partly sunny.2 mph73%29.95 "HgN/A
10:30 AM66 °FBroken clouds.2 mph73%29.95 "HgN/A
10:00 AM66 °FBroken clouds.2 mph73%29.95 "HgN/A
9:30 AM66 °FBroken clouds.2 mph78%29.95 "HgN/A
9:00 AM63 °FBroken clouds.No wind83%29.95 "HgN/A
8:30 AM61 °FScattered clouds.No wind88%29.95 "HgN/A
8:00 AM59 °FScattered clouds.No wind88%29.95 "HgN/A
7:30 AM57 °FScattered clouds.2 mph88%29.95 "HgN/A
7:00 AM55 °FPassing clouds.2 mph94%29.95 "HgN/A
Weather by CustomWeather, © 2014

See weather overviewHow to use our weather pages